Time,TemperatureF,DewpointF,PressureIn,WindDirection,WindDirectionDegrees,WindSpeedMPH,WindSpeedGustMPH,Humidity,HourlyPrecipIn,Conditions,Clouds,dailyrainin,SolarRadiationWatts/m^2,SoftwareType,DateUTC
2013-02-01 00:02:00,32.7,39.9,29.94,West,279,4.0,14.0,30,0.00,,,0.01,0.0,meteohub,2013-02-01 05:02:00,
2013-02-01 00:07:00,32.7,39.9,29.95,WNW,291,7.0,14.0,30,0.00,,,0.00,0.0,meteohub,2013-02-01 05:07:00,
2013-02-01 00:12:00,32.9,39.9,29.96,NNW,331,6.0,13.0,30,0.00,,,0.00,0.0,meteohub,2013-02-01 05:12:00,
2013-02-01 00:17:00,33.1,39.9,29.95,WNW,300,11.0,18.0,30,0.00,,,0.00,0.0,meteohub,2013-02-01 05:17:00,
2013-02-01 00:22:00,33.3,39.9,29.95,West,262,3.0,18.0,30,0.00,,,0.00,0.0,meteohub,2013-02-01 05:22:00,
2013-02-01 00:27:00,33.3,39.9,29.94,NW,309,7.0,18.0,30,0.00,,,0.00,0.0,meteohub,2013-02-01 05:27:00,
2013-02-01 00:32:00,33.4,39.9,29.95,NE,41,6.0,17.0,30,0.00,,,0.00,0.0,meteohub,2013-02-01 05:32:00,
2013-02-01 00:37:00,33.8,39.9,29.95,NW,317,8.0,17.0,30,0.00,,,0.00,0.0,meteohub,2013-02-01 05:37:00,
2013-02-01 00:42:00,34.0,39.9,29.94,SSW,202,9.0,17.0,30,0.00,,,0.00,0.0,meteohub,2013-02-01 05:42:00,
2013-02-01 00:47:00,34.0,39.9,29.94,NW,311,1.0,17.0,30,0.00,,,0.00,0.0,meteohub,2013-02-01 05:47:00,
2013-02-01 00:52:00,34.2,39.9,29.95,West,259,6.0,15.0,30,0.00,,,0.00,0.0,meteohub,2013-02-01 05:52:00,
2013-02-01 00:57:00,34.3,39.9,29.95,South,175,2.0,15.0,30,0.00,,,0.00,0.0,meteohub,2013-02-01 05:57:00,
2013-02-01 01:02:00,34.5,39.9,29.95,West,265,5.0,15.0,30,0.00,,,0.00,0.0,meteohub,2013-02-01 06:02:00,
2013-02-01 01:07:00,34.9,39.9,29.94,WNW,285,10.0,16.0,30,0.00,,,0.00,0.0,meteohub,2013-02-01 06:07:00,
2013-02-01 01:12:00,35.1,39.9,29.94,WNW,295,4.0,16.0,30,0.00,,,0.00,0.0,meteohub,2013-02-01 06:12:00,
2013-02-01 01:17:00,35.1,39.9,29.93,WNW,301,3.0,16.0,30,0.00,,,0.00,0.0,meteohub,2013-02-01 06:17:00,
2013-02-01 01:22:00,35.1,39.9,29.93,West,269,3.0,16.0,30,0.00,,,0.00,0.0,meteohub,2013-02-01 06:22:00,
2013-02-01 01:27:00,35.2,39.7,29.93,West,260,4.0,16.0,30,0.00,,,0.00,0.0,meteohub,2013-02-01 06:27:00,
2013-02-01 01:32:00,35.2,39.7,29.93,NW,315,5.0,15.0,30,0.00,,,0.00,0.0,meteohub,2013-02-01 06:32:00,
2013-02-01 01:37:00,35.2,39.7,29.92,WNW,288,7.0,15.0,30,0.00,,,0.00,0.0,meteohub,2013-02-01 06:37:00,
2013-02-01 01:42:00,35.4,39.7,29.92,WNW,302,6.0,11.0,30,0.00,,,0.00,0.0,meteohub,2013-02-01 06:42:00,
2013-02-01 01:52:00,35.8,39.7,29.91,NW,308,4.0,12.0,30,0.00,,,0.00,0.0,meteohub,2013-02-01 06:52:00,
2013-02-01 01:57:00,36.0,39.7,29.91,WNW,292,3.0,11.0,30,0.00,,,0.00,0.0,meteohub,2013-02-01 06:57:00,
2013-02-01 02:02:00,36.1,39.7,29.91,WNW,284,2.0,13.0,30,0.00,,,0.00,0.0,meteohub,2013-02-01 07:02:00,
2013-02-01 02:07:00,36.1,39.7,29.91,West,265,8.0,14.0,30,0.00,,,0.00,0.0,meteohub,2013-02-01 07:07:00,
2013-02-01 02:12:00,36.3,39.7,29.91,West,281,7.0,16.0,30,0.00,,,0.00,0.0,meteohub,2013-02-01 07:12:00,
2013-02-01 02:17:00,36.5,39.7,29.91,WSW,244,6.0,16.0,30,0.00,,,0.00,0.0,meteohub,2013-02-01 07:17:00,
2013-02-01 02:22:00,36.7,39.7,29.91,West,263,1.0,14.0,30,0.00,,,0.00,0.0,meteohub,2013-02-01 07:22:00,
2013-02-01 02:27:00,36.9,39.7,29.90,WNW,291,4.0,20.0,30,0.00,,,0.00,0.0,meteohub,2013-02-01 07:27:00,
2013-02-01 02:32:00,37.0,39.7,29.90,West,271,9.0,20.0,30,0.00,,,0.00,0.0,meteohub,2013-02-01 07:32:00,
2013-02-01 02:37:00,37.4,39.7,29.91,NW,322,8.0,23.0,30,0.00,,,0.00,0.0,meteohub,2013-02-01 07:37:00,
2013-02-01 02:42:00,37.6,39.7,29.90,West,262,6.0,23.0,30,0.00,,,0.00,0.0,meteohub,2013-02-01 07:42:00,
2013-02-01 02:47:00,37.6,39.7,29.89,WSW,250,9.0,18.0,30,0.00,,,0.00,0.0,meteohub,2013-02-01 07:47:00,
2013-02-01 02:52:00,37.8,39.7,29.89,West,281,3.0,18.0,30,0.00,,,0.00,0.0,meteohub,2013-02-01 07:52:00,
2013-02-01 02:57:00,37.8,39.7,29.89,WNW,293,4.0,19.0,30,0.00,,,0.00,0.0,meteohub,2013-02-01 07:57:00,
2013-02-01 03:02:00,37.8,39.7,29.89,WNW,297,11.0,19.0,30,0.00,,,0.00,0.0,meteohub,2013-02-01 08:02:00,
2013-02-01 03:07:00,37.8,39.7,29.89,WNW,284,19.0,19.0,30,0.00,,,0.00,0.0,meteohub,2013-02-01 08:07:00,
2013-02-01 03:12:00,37.8,39.7,29.89,NNW,336,6.0,22.0,30,0.00,,,0.00,0.0,meteohub,2013-02-01 08:12:00,
2013-02-01 03:17:00,37.8,39.7,29.89,West,265,13.0,22.0,30,0.00,,,0.00,0.0,meteohub,2013-02-01 08:17:00,
2013-02-01 03:22:00,37.8,39.7,29.89,West,263,7.0,30.0,30,0.00,,,0.00,0.0,meteohub,2013-02-01 08:22:00,
2013-02-01 03:27:00,37.8,39.7,29.89,West,266,5.0,30.0,30,0.00,,,0.00,0.0,meteohub,2013-02-01 08:27:00,
2013-02-01 03:32:00,37.6,39.7,29.89,North,351,9.0,30.0,30,0.00,,,0.00,0.0,meteohub,2013-02-01 08:32:00,
2013-02-01 03:37:00,37.6,39.7,29.89,WNW,284,6.0,20.0,30,0.00,,,0.00,0.0,meteohub,2013-02-01 08:37:00,
2013-02-01 03:42:00,37.4,39.7,29.89,WNW,294,16.0,18.0,30,0.00,,,0.00,0.0,meteohub,2013-02-01 08:42:00,
2013-02-01 03:47:00,37.2,39.7,29.89,WNW,287,12.0,18.0,30,0.00,,,0.00,0.0,meteohub,2013-02-01 08:47:00,
2013-02-01 03:52:00,36.9,39.7,29.90,NW,315,6.0,19.0,30,0.00,,,0.00,0.0,meteohub,2013-02-01 08:52:00,
2013-02-01 03:57:00,36.7,39.7,29.91,NW,309,11.0,19.0,30,0.00,,,0.00,0.0,meteohub,2013-02-01 08:57:00,
2013-02-01 04:02:00,36.0,39.7,29.91,NW,304,6.0,15.0,30,0.00,,,0.00,0.0,meteohub,2013-02-01 09:02:00,
2013-02-01 04:07:00,34.5,39.7,29.92,NNW,335,7.0,16.0,30,0.00,,,0.00,0.0,meteohub,2013-02-01 09:07:00,
2013-02-01 04:12:00,33.4,39.7,29.92,North,5,3.0,16.0,30,0.00,,,0.00,0.0,meteohub,2013-02-01 09:12:00,
2013-02-01 04:17:00,32.5,39.7,29.92,West,274,13.0,16.0,30,0.00,,,0.00,0.0,meteohub,2013-02-01 09:17:00,
2013-02-01 04:22:00,31.6,39.7,29.92,WNW,287,9.0,14.0,30,0.00,,,0.00,0.0,meteohub,2013-02-01 09:22:00,
2013-02-01 04:32:00,30.2,39.7,29.93,NW,307,13.0,16.0,30,0.00,,,0.00,0.0,meteohub,2013-02-01 09:32:00,
2013-02-01 04:37:00,29.8,39.7,29.94,NNW,341,5.0,17.0,30,0.00,,,0.00,0.0,meteohub,2013-02-01 09:37:00,
2013-02-01 04:42:00,29.8,39.7,29.93,NNE,19,4.0,17.0,30,0.00,,,0.00,0.0,meteohub,2013-02-01 09:42:00,
2013-02-01 04:47:00,29.8,39.7,29.94,WNW,303,7.0,17.0,30,0.00,,,0.00,0.0,meteohub,2013-02-01 09:47:00,
2013-02-01 04:52:00,29.7,38.8,29.94,West,275,7.0,16.0,29,0.00,,,0.00,0.0,meteohub,2013-02-01 09:52:00,
2013-02-01 04:57:00,29.5,38.8,29.94,NNW,338,7.0,16.0,29,0.00,,,0.00,0.0,meteohub,2013-02-01 09:57:00,
2013-02-01 05:02:00,29.1,38.8,29.95,WNW,290,14.0,16.0,29,0.00,,,0.00,0.0,meteohub,2013-02-01 10:02:00,
2013-02-01 05:07:00,28.8,38.8,29.94,WNW,298,10.0,17.0,29,0.00,,,0.00,0.0,meteohub,2013-02-01 10:07:00,
2013-02-01 05:12:00,28.4,38.8,29.95,WNW,300,5.0,17.0,29,0.00,,,0.00,0.0,meteohub,2013-02-01 10:12:00,
2013-02-01 05:17:00,28.2,37.9,29.96,WSW,254,9.0,17.0,28,0.00,,,0.00,0.0,meteohub,2013-02-01 10:17:00,
2013-02-01 05:22:00,28.0,37.9,29.96,NNW,336,7.0,23.0,28,0.00,,,0.00,0.0,meteohub,2013-02-01 10:22:00,
2013-02-01 05:27:00,27.9,37.9,29.96,NW,305,10.0,23.0,28,0.00,,,0.00,0.0,meteohub,2013-02-01 10:27:00,
2013-02-01 05:32:00,27.7,37.9,29.96,WSW,254,11.0,19.0,28,0.00,,,0.00,0.0,meteohub,2013-02-01 10:32:00,
2013-02-01 05:37:00,27.5,37.9,29.97,WNW,286,19.0,30.0,28,0.00,,,0.00,0.0,meteohub,2013-02-01 10:37:00,
2013-02-01 05:42:00,27.1,37.8,29.97,NW,320,17.0,30.0,28,0.00,,,0.00,0.0,meteohub,2013-02-01 10:42:00,
2013-02-01 05:47:00,27.0,37.8,29.97,WNW,291,19.0,30.0,28,0.00,,,0.00,0.0,meteohub,2013-02-01 10:47:00,
2013-02-01 05:52:00,26.4,37.8,29.99,WNW,290,12.0,23.0,28,0.00,,,0.00,0.0,meteohub,2013-02-01 10:52:00,
2013-02-01 05:57:00,26.1,37.8,29.99,NNW,344,10.0,20.0,28,0.00,,,0.00,0.0,meteohub,2013-02-01 10:57:00,
2013-02-01 06:02:00,25.9,37.8,30.00,NW,318,5.0,21.0,28,0.00,,,0.00,0.0,meteohub,2013-02-01 11:02:00,
2013-02-01 06:07:00,25.5,37.8,30.01,NW,315,7.0,21.0,28,0.00,,,0.00,0.0,meteohub,2013-02-01 11:07:00,
2013-02-01 06:12:00,25.2,37.8,30.01,North,0,8.0,19.0,28,0.00,,,0.00,0.0,meteohub,2013-02-01 11:12:00,
2013-02-01 06:17:00,25.0,37.9,30.02,North,355,4.0,23.0,28,0.00,,,0.00,0.0,meteohub,2013-02-01 11:17:00,
2013-02-01 06:22:00,24.6,45.9,30.02,North,350,9.0,23.0,38,0.00,,,0.00,0.0,meteohub,2013-02-01 11:22:00,
2013-02-01 06:27:00,24.3,42.8,30.03,West,277,4.0,23.0,34,0.00,,,0.00,0.0,meteohub,2013-02-01 11:27:00,
2013-02-01 06:32:00,23.7,42.1,30.04,NW,313,5.0,17.0,33,0.00,,,0.00,0.0,meteohub,2013-02-01 11:32:00,
2013-02-01 06:37:00,23.4,40.5,30.04,North,349,6.0,17.0,31,0.00,,,0.00,0.0,meteohub,2013-02-01 11:37:00,
2013-02-01 06:42:00,23.0,39.6,30.04,NNW,344,10.0,17.0,30,0.00,,,0.00,0.0,meteohub,2013-02-01 11:42:00,
2013-02-01 06:47:00,22.6,39.7,30.05,NW,314,7.0,17.0,30,0.00,,,0.00,0.0,meteohub,2013-02-01 11:47:00,
2013-02-01 06:52:00,22.5,38.8,30.05,NW,307,10.0,17.0,29,0.00,,,0.00,0.0,meteohub,2013-02-01 11:52:00,
2013-02-01 06:57:00,22.1,38.8,30.05,North,350,14.0,15.0,29,0.00,,,0.00,0.0,meteohub,2013-02-01 11:57:00,
2013-02-01 07:02:00,21.9,38.8,30.06,NW,311,7.0,18.0,29,0.00,,,0.00,0.0,meteohub,2013-02-01 12:02:00,
2013-02-01 07:07:00,21.7,39.0,30.06,West,267,6.0,18.0,29,0.00,,,0.00,0.0,meteohub,2013-02-01 12:07:00,
2013-02-01 07:12:00,21.6,39.0,30.06,WNW,294,7.0,18.0,29,0.00,,,0.00,0.0,meteohub,2013-02-01 12:12:00,
2013-02-01 07:17:00,21.4,39.0,30.06,NW,322,9.0,16.0,29,0.00,,,0.00,0.0,meteohub,2013-02-01 12:17:00,
2013-02-01 07:22:00,21.0,39.4,30.07,NNW,334,4.0,16.0,29,0.00,,,0.00,0.0,meteohub,2013-02-01 12:22:00,
2013-02-01 07:27:00,20.8,39.4,30.07,NW,315,9.0,13.0,29,0.00,,,0.00,0.0,meteohub,2013-02-01 12:27:00,
2013-02-01 07:32:00,20.8,39.4,30.08,WNW,290,10.0,13.0,29,0.00,,,0.00,5.0,meteohub,2013-02-01 12:32:00,
2013-02-01 07:37:00,20.5,39.4,30.08,WNW,296,6.0,16.0,29,0.00,,,0.00,9.0,meteohub,2013-02-01 12:37:00,
2013-02-01 07:42:00,20.1,39.4,30.09,North,0,13.0,16.0,29,0.00,,,0.00,12.0,meteohub,2013-02-01 12:42:00,
2013-02-01 07:47:00,19.9,39.6,30.09,WNW,302,4.0,18.0,29,0.00,,,0.00,16.0,meteohub,2013-02-01 12:47:00,
2013-02-01 07:52:00,19.6,39.6,30.09,WNW,292,4.0,18.0,29,0.00,,,0.00,19.0,meteohub,2013-02-01 12:52:00,
2013-02-01 08:02:00,19.0,39.6,30.11,NW,318,7.0,16.0,29,0.00,,,0.00,28.0,meteohub,2013-02-01 13:02:00,
2013-02-01 08:07:00,19.0,38.7,30.11,WNW,296,9.0,16.0,28,0.00,,,0.00,40.0,meteohub,2013-02-01 13:07:00,
2013-02-01 08:12:00,18.9,38.7,30.12,WNW,286,8.0,14.0,28,0.00,,,0.00,54.0,meteohub,2013-02-01 13:12:00,
2013-02-01 08:17:00,18.9,38.7,30.12,WNW,300,7.0,16.0,28,0.00,,,0.00,69.0,meteohub,2013-02-01 13:17:00,
2013-02-01 08:22:00,18.9,38.7,30.12,NW,307,6.0,16.0,28,0.00,,,0.00,83.0,meteohub,2013-02-01 13:22:00,
2013-02-01 08:27:00,18.9,38.8,30.12,WNW,298,10.0,23.0,28,0.00,,,0.00,104.0,meteohub,2013-02-01 13:27:00,
2013-02-01 08:32:00,18.7,38.8,30.13,NW,318,12.0,23.0,28,0.00,,,0.00,123.0,meteohub,2013-02-01 13:32:00,
2013-02-01 08:37:00,18.9,39.0,30.13,WNW,296,11.0,23.0,28,0.00,,,0.00,144.0,meteohub,2013-02-01 13:37:00,
2013-02-01 08:42:00,18.7,39.0,30.13,NW,308,5.0,19.0,28,0.00,,,0.00,160.0,meteohub,2013-02-01 13:42:00,
2013-02-01 08:47:00,18.7,39.0,30.13,West,276,13.0,19.0,28,0.00,,,0.00,183.0,meteohub,2013-02-01 13:47:00,
2013-02-01 08:52:00,18.7,38.8,30.14,WNW,300,4.0,19.0,28,0.00,,,0.00,206.0,meteohub,2013-02-01 13:52:00,
2013-02-01 08:57:00,18.7,38.8,30.14,NNW,346,3.0,20.0,28,0.00,,,0.00,225.0,meteohub,2013-02-01 13:57:00,
2013-02-01 09:02:00,18.7,38.8,30.14,NNW,335,9.0,20.0,28,0.00,,,0.00,244.0,meteohub,2013-02-01 14:02:00,
2013-02-01 09:12:00,18.9,37.8,30.15,West,280,5.0,21.0,27,0.00,,,0.00,283.0,meteohub,2013-02-01 14:12:00,
2013-02-01 09:17:00,18.9,37.8,30.15,NW,319,10.0,21.0,27,0.00,,,0.00,302.0,meteohub,2013-02-01 14:17:00,
2013-02-01 09:22:00,18.9,37.8,30.15,WNW,302,5.0,21.0,27,0.00,,,0.00,315.0,meteohub,2013-02-01 14:22:00,
2013-02-01 09:27:00,18.9,38.8,30.16,WSW,254,8.0,21.0,28,0.00,,,0.00,329.0,meteohub,2013-02-01 14:27:00,
2013-02-01 09:32:00,19.0,38.8,30.17,WSW,240,4.0,21.0,28,0.00,,,0.00,355.0,meteohub,2013-02-01 14:32:00,
2013-02-01 09:37:00,19.0,37.8,30.17,North,355,8.0,18.0,27,0.00,,,0.00,364.0,meteohub,2013-02-01 14:37:00,
2013-02-01 09:42:00,19.6,37.9,30.17,NNW,342,9.0,14.0,27,0.00,,,0.00,381.0,meteohub,2013-02-01 14:42:00,
2013-02-01 09:47:00,19.8,37.9,30.18,North,351,8.0,14.0,27,0.00,,,0.00,396.0,meteohub,2013-02-01 14:47:00,
2013-02-01 09:52:00,19.6,37.9,30.17,WNW,302,9.0,13.0,27,0.00,,,0.00,411.0,meteohub,2013-02-01 14:52:00,
2013-02-01 09:57:00,19.6,37.9,30.18,NW,312,14.0,15.0,27,0.00,,,0.00,425.0,meteohub,2013-02-01 14:57:00,
2013-02-01 10:02:00,19.6,37.9,30.18,NNW,331,10.0,18.0,27,0.00,,,0.00,438.0,meteohub,2013-02-01 15:02:00,
2013-02-01 10:07:00,20.1,37.9,30.18,WNW,296,8.0,18.0,27,0.00,,,0.00,455.0,meteohub,2013-02-01 15:07:00,
2013-02-01 10:12:00,19.9,38.1,30.19,NNW,338,21.0,21.0,27,0.00,,,0.00,469.0,meteohub,2013-02-01 15:12:00,
2013-02-01 10:17:00,19.8,38.1,30.19,WSW,248,11.0,29.0,27,0.00,,,0.00,482.0,meteohub,2013-02-01 15:17:00,
2013-02-01 10:22:00,19.9,38.1,30.19,NW,305,16.0,29.0,27,0.00,,,0.00,496.0,meteohub,2013-02-01 15:22:00,
2013-02-01 10:27:00,20.1,38.1,30.19,West,265,8.0,29.0,27,0.00,,,0.00,508.0,meteohub,2013-02-01 15:27:00,
2013-02-01 10:32:00,20.1,38.3,30.20,NW,309,19.0,20.0,27,0.00,,,0.00,520.0,meteohub,2013-02-01 15:32:00,
2013-02-01 10:37:00,20.5,38.3,30.20,WNW,282,8.0,22.0,27,0.00,,,0.00,531.0,meteohub,2013-02-01 15:37:00,
2013-02-01 10:42:00,20.7,38.3,30.20,NNE,27,9.0,22.0,27,0.00,,,0.00,543.0,meteohub,2013-02-01 15:42:00,
2013-02-01 10:47:00,21.2,38.3,30.21,WNW,292,8.0,22.0,27,0.00,,,0.00,555.0,meteohub,2013-02-01 15:47:00,
2013-02-01 10:52:00,21.6,38.3,30.21,WNW,298,10.0,22.0,27,0.00,,,0.00,568.0,meteohub,2013-02-01 15:52:00,
2013-02-01 10:57:00,21.4,37.4,30.21,NNW,339,15.0,19.0,26,0.00,,,0.00,580.0,meteohub,2013-02-01 15:57:00,
2013-02-01 11:02:00,21.4,37.4,30.21,WSW,246,11.0,20.0,26,0.00,,,0.00,589.0,meteohub,2013-02-01 16:02:00,
2013-02-01 11:07:00,21.6,37.4,30.21,West,275,9.0,20.0,26,0.00,,,0.00,598.0,meteohub,2013-02-01 16:07:00,
2013-02-01 11:12:00,21.6,37.4,30.20,WNW,300,6.0,20.0,26,0.00,,,0.00,608.0,meteohub,2013-02-01 16:12:00,
2013-02-01 11:17:00,21.9,37.4,30.21,West,274,4.0,19.0,26,0.00,,,0.00,619.0,meteohub,2013-02-01 16:17:00,
2013-02-01 11:22:00,22.5,37.4,30.21,West,280,3.0,19.0,26,0.00,,,0.00,629.0,meteohub,2013-02-01 16:22:00,
2013-02-01 11:27:00,21.9,37.4,30.21,WNW,301,21.0,21.0,26,0.00,,,0.00,636.0,meteohub,2013-02-01 16:27:00,
2013-02-01 11:32:00,22.1,37.6,30.21,West,265,8.0,21.0,26,0.00,,,0.00,643.0,meteohub,2013-02-01 16:32:00,
2013-02-01 11:37:00,22.3,37.6,30.21,West,279,11.0,21.0,26,0.00,,,0.00,650.0,meteohub,2013-02-01 16:37:00,
2013-02-01 11:42:00,22.5,37.6,30.21,NNW,332,4.0,23.0,26,0.00,,,0.00,654.0,meteohub,2013-02-01 16:42:00,
2013-02-01 11:47:00,22.5,36.5,30.21,WNW,287,8.0,23.0,25,0.00,,,0.00,663.0,meteohub,2013-02-01 16:47:00,
2013-02-01 11:52:00,22.8,36.5,30.21,NNW,342,8.0,19.0,25,0.00,,,0.00,670.0,meteohub,2013-02-01 16:52:00,
2013-02-01 11:57:00,23.2,37.6,30.21,WNW,295,9.0,19.0,26,0.00,,,0.00,677.0,meteohub,2013-02-01 16:57:00,
2013-02-01 12:02:00,23.4,37.6,30.21,West,281,10.0,19.0,26,0.00,,,0.00,680.0,meteohub,2013-02-01 17:02:00,
2013-02-01 12:07:00,23.4,36.7,30.22,NW,306,12.0,20.0,25,0.00,,,0.00,684.0,meteohub,2013-02-01 17:07:00,
2013-02-01 12:12:00,23.4,36.5,30.21,WNW,301,8.0,20.0,25,0.00,,,0.00,691.0,meteohub,2013-02-01 17:12:00,
2013-02-01 12:17:00,23.5,36.5,30.22,North,9,10.0,20.0,25,0.00,,,0.00,693.0,meteohub,2013-02-01 17:17:00,
2013-02-01 12:22:00,23.5,36.5,30.22,WNW,301,3.0,18.0,25,0.00,,,0.00,696.0,meteohub,2013-02-01 17:22:00,
2013-02-01 12:27:00,23.7,36.7,30.21,NW,307,4.0,17.0,25,0.00,,,0.00,700.0,meteohub,2013-02-01 17:27:00,
2013-02-01 12:32:00,23.9,36.7,30.21,NW,322,7.0,17.0,25,0.00,,,0.00,701.0,meteohub,2013-02-01 17:32:00,
2013-02-01 12:37:00,24.8,36.5,30.21,NW,324,10.0,20.0,25,0.00,,,0.00,705.0,meteohub,2013-02-01 17:37:00,
2013-02-01 12:42:00,25.0,36.7,30.22,West,272,6.0,20.0,25,0.00,,,0.00,705.0,meteohub,2013-02-01 17:42:00,
2013-02-01 12:47:00,25.5,36.7,30.21,NW,316,4.0,20.0,25,0.00,,,0.00,703.0,meteohub,2013-02-01 17:47:00,
2013-02-01 12:52:00,25.3,36.7,30.21,WNW,288,5.0,20.0,25,0.00,,,0.00,705.0,meteohub,2013-02-01 17:52:00,
2013-02-01 12:57:00,25.5,36.7,30.22,WSW,242,6.0,20.0,25,0.00,,,0.00,701.0,meteohub,2013-02-01 17:57:00,
2013-02-01 13:02:00,25.2,36.9,30.22,West,281,4.0,15.0,25,0.00,,,0.00,703.0,meteohub,2013-02-01 18:02:00,
2013-02-01 13:07:00,25.5,36.9,30.21,West,281,10.0,15.0,25,0.00,,,0.00,701.0,meteohub,2013-02-01 18:07:00,
2013-02-01 13:12:00,25.5,36.9,30.21,WNW,293,13.0,16.0,25,0.00,,,0.00,700.0,meteohub,2013-02-01 18:12:00,
2013-02-01 13:17:00,25.7,36.9,30.21,WSW,242,6.0,20.0,25,0.00,,,0.00,696.0,meteohub,2013-02-01 18:17:00,
2013-02-01 13:22:00,26.2,36.9,30.21,WNW,301,6.0,20.0,25,0.00,,,0.00,694.0,meteohub,2013-02-01 18:22:00,
2013-02-01 13:27:00,26.1,36.9,30.21,North,355,3.0,20.0,25,0.00,,,0.00,693.0,meteohub,2013-02-01 18:27:00,
2013-02-01 13:32:00,26.4,35.8,30.21,WNW,298,4.0,18.0,24,0.00,,,0.00,689.0,meteohub,2013-02-01 18:32:00,
2013-02-01 13:37:00,26.4,36.9,30.21,WNW,284,8.0,17.0,25,0.00,,,0.00,686.0,meteohub,2013-02-01 18:37:00,
2013-02-01 13:42:00,27.0,36.9,30.21,NW,313,6.0,16.0,25,0.00,,,0.00,679.0,meteohub,2013-02-01 18:42:00,
2013-02-01 13:47:00,27.1,36.9,30.21,West,263,7.0,16.0,25,0.00,,,0.00,673.0,meteohub,2013-02-01 18:47:00,
2013-02-01 13:52:00,27.5,36.9,30.21,NW,304,5.0,16.0,25,0.00,,,0.00,668.0,meteohub,2013-02-01 18:52:00,
2013-02-01 13:57:00,27.1,36.9,30.21,WNW,295,5.0,16.0,25,0.00,,,0.00,663.0,meteohub,2013-02-01 18:57:00,
2013-02-01 14:02:00,27.3,36.9,30.21,WSW,244,2.0,16.0,25,0.00,,,0.00,659.0,meteohub,2013-02-01 19:02:00,
2013-02-01 14:07:00,28.6,36.9,30.21,NW,319,4.0,14.0,25,0.00,,,0.00,650.0,meteohub,2013-02-01 19:07:00,
2013-02-01 14:12:00,27.9,36.9,30.22,West,275,6.0,15.0,25,0.00,,,0.00,640.0,meteohub,2013-02-01 19:12:00,
2013-02-01 14:17:00,27.9,36.9,30.22,NNW,336,6.0,15.0,25,0.00,,,0.00,633.0,meteohub,2013-02-01 19:17:00,
2013-02-01 14:22:00,27.9,36.9,30.22,West,259,4.0,15.0,25,0.00,,,0.00,624.0,meteohub,2013-02-01 19:22:00,
2013-02-01 14:27:00,27.9,36.9,30.22,SW,232,3.0,14.0,25,0.00,,,0.00,615.0,meteohub,2013-02-01 19:27:00,
2013-02-01 14:32:00,27.9,36.9,30.22,South,180,4.0,14.0,25,0.00,,,0.00,608.0,meteohub,2013-02-01 19:32:00,
2013-02-01 14:37:00,27.9,35.8,30.22,North,10,2.0,14.0,24,0.00,,,0.00,598.0,meteohub,2013-02-01 19:37:00,
2013-02-01 14:42:00,27.7,35.8,30.21,NNW,340,8.0,16.0,24,0.00,,,0.00,587.0,meteohub,2013-02-01 19:42:00,
2013-02-01 14:47:00,28.2,35.8,30.21,West,281,2.0,16.0,24,0.00,,,0.00,575.0,meteohub,2013-02-01 19:47:00,
2013-02-01 14:52:00,28.8,35.8,30.21,West,271,6.0,16.0,24,0.00,,,0.00,564.0,meteohub,2013-02-01 19:52:00,
2013-02-01 14:57:00,28.8,35.6,30.21,West,276,7.0,13.0,24,0.00,,,0.00,552.0,meteohub,2013-02-01 19:57:00,
2013-02-01 15:02:00,28.2,35.6,30.21,West,275,3.0,13.0,24,0.00,,,0.00,541.0,meteohub,2013-02-01 20:02:00,
2013-02-01 15:07:00,27.9,35.6,30.22,West,281,11.0,14.0,24,0.00,,,0.00,529.0,meteohub,2013-02-01 20:07:00,
2013-02-01 15:12:00,27.7,36.7,30.22,WSW,238,7.0,15.0,25,0.00,,,0.00,517.0,meteohub,2013-02-01 20:12:00,
2013-02-01 15:17:00,27.9,35.6,30.22,South,175,0.0,16.0,24,0.00,,,0.00,504.0,meteohub,2013-02-01 20:17:00,
2013-02-01 15:22:00,28.2,35.6,30.22,WSW,247,7.0,17.0,24,0.00,,,0.00,492.0,meteohub,2013-02-01 20:22:00,
2013-02-01 15:27:00,28.0,35.6,30.22,WNW,282,8.0,17.0,24,0.00,,,0.00,476.0,meteohub,2013-02-01 20:27:00,
2013-02-01 15:32:00,27.9,35.6,30.22,North,355,7.0,14.0,24,0.00,,,0.00,469.0,meteohub,2013-02-01 20:32:00,
2013-02-01 15:37:00,28.0,35.6,30.22,North,355,4.0,14.0,24,0.00,,,0.00,452.0,meteohub,2013-02-01 20:37:00,
2013-02-01 15:42:00,27.9,35.4,30.22,WNW,288,8.0,13.0,24,0.00,,,0.00,438.0,meteohub,2013-02-01 20:42:00,
2013-02-01 15:47:00,27.7,35.4,30.22,North,350,8.0,13.0,24,0.00,,,0.00,422.0,meteohub,2013-02-01 20:47:00,
2013-02-01 15:52:00,27.9,35.4,30.22,NNW,348,4.0,13.0,24,0.00,,,0.00,406.0,meteohub,2013-02-01 20:52:00,
2013-02-01 15:57:00,28.0,35.4,30.22,NW,320,5.0,13.0,24,0.00,,,0.00,392.0,meteohub,2013-02-01 20:57:00,
2013-02-01 16:02:00,28.0,35.2,30.22,West,264,4.0,11.0,24,0.00,,,0.00,376.0,meteohub,2013-02-01 21:02:00,
2013-02-01 16:07:00,28.2,35.2,30.22,WNW,302,5.0,13.0,24,0.00,,,0.00,359.0,meteohub,2013-02-01 21:07:00,
2013-02-01 16:12:00,28.4,35.2,30.22,NNW,331,1.0,13.0,24,0.00,,,0.00,345.0,meteohub,2013-02-01 21:12:00,
2013-02-01 16:17:00,28.4,35.4,30.22,WSW,258,3.0,13.0,24,0.00,,,0.00,329.0,meteohub,2013-02-01 21:17:00,
2013-02-01 16:22:00,28.2,35.4,30.23,WSW,250,3.0,11.0,24,0.00,,,0.00,313.0,meteohub,2013-02-01 21:22:00,
2013-02-01 16:27:00,28.4,35.4,30.23,NNW,343,7.0,11.0,24,0.00,,,0.00,295.0,meteohub,2013-02-01 21:27:00,
2013-02-01 16:32:00,28.0,35.4,30.23,WSW,257,1.0,10.0,24,0.00,,,0.00,276.0,meteohub,2013-02-01 21:32:00,
2013-02-01 16:37:00,28.6,35.2,30.23,WSW,239,2.0,10.0,24,0.00,,,0.00,255.0,meteohub,2013-02-01 21:37:00,
2013-02-01 16:42:00,28.2,35.2,30.24,NNW,340,2.0,9.0,24,0.00,,,0.00,234.0,meteohub,2013-02-01 21:42:00,
2013-02-01 16:47:00,28.6,34.3,30.23,NW,320,3.0,8.0,23,0.00,,,0.00,216.0,meteohub,2013-02-01 21:47:00,
2013-02-01 16:52:00,28.2,34.3,30.24,NW,321,5.0,9.0,23,0.00,,,0.00,195.0,meteohub,2013-02-01 21:52:00,
2013-02-01 16:57:00,27.9,34.3,30.24,West,266,6.0,9.0,23,0.00,,,0.00,172.0,meteohub,2013-02-01 21:57:00,
2013-02-01 17:02:00,28.0,34.3,30.24,West,267,3.0,9.0,23,0.00,,,0.00,151.0,meteohub,2013-02-01 22:02:00,
2013-02-01 17:07:00,28.0,35.2,30.24,SW,235,4.0,8.0,24,0.00,,,0.00,130.0,meteohub,2013-02-01 22:07:00,
2013-02-01 17:12:00,27.9,35.2,30.24,West,274,6.0,8.0,24,0.00,,,0.00,111.0,meteohub,2013-02-01 22:12:00,
2013-02-01 17:22:00,27.3,35.2,30.24,WNW,302,2.0,8.0,24,0.00,,,0.00,76.0,meteohub,2013-02-01 22:22:00,
2013-02-01 17:27:00,27.3,35.2,30.24,WNW,285,2.0,8.0,24,0.00,,,0.00,60.0,meteohub,2013-02-01 22:27:00,
2013-02-01 17:32:00,27.1,35.1,30.24,NNW,327,2.0,7.0,24,0.00,,,0.00,42.0,meteohub,2013-02-01 22:32:00,
2013-02-01 17:37:00,27.0,35.1,30.24,NW,309,3.0,6.0,24,0.00,,,0.00,26.0,meteohub,2013-02-01 22:37:00,
2013-02-01 17:42:00,26.4,35.1,30.24,WSW,244,4.0,6.0,24,0.00,,,0.00,16.0,meteohub,2013-02-01 22:42:00,
2013-02-01 17:47:00,26.2,35.1,30.24,West,263,3.0,6.0,24,0.00,,,0.00,12.0,meteohub,2013-02-01 22:47:00,
2013-02-01 17:52:00,25.9,36.0,30.24,WNW,292,1.0,6.0,25,0.00,,,0.00,9.0,meteohub,2013-02-01 22:52:00,
2013-02-01 17:57:00,25.5,36.0,30.24,WNW,292,1.0,7.0,25,0.00,,,0.00,7.0,meteohub,2013-02-01 22:57:00,
2013-02-01 18:02:00,25.3,36.0,30.23,North,0,6.0,7.0,25,0.00,,,0.00,5.0,meteohub,2013-02-01 23:02:00,
2013-02-01 18:07:00,25.2,36.0,30.24,North,5,2.0,7.0,25,0.00,,,0.00,0.0,meteohub,2013-02-01 23:07:00,
2013-02-01 18:12:00,24.8,36.0,30.24,NNE,13,2.0,7.0,25,0.00,,,0.00,0.0,meteohub,2013-02-01 23:12:00,
2013-02-01 18:17:00,24.6,35.8,30.24,NW,323,1.0,7.0,25,0.00,,,0.00,0.0,meteohub,2013-02-01 23:17:00,
2013-02-01 18:22:00,24.4,35.8,30.25,SSE,161,1.0,5.0,25,0.00,,,0.00,0.0,meteohub,2013-02-01 23:22:00,
2013-02-01 18:27:00,23.7,35.8,30.25,ESE,104,0.0,4.0,25,0.00,,,0.00,0.0,meteohub,2013-02-01 23:27:00,
2013-02-01 18:32:00,22.8,35.8,30.25,East,96,0.0,3.0,25,0.00,,,0.00,0.0,meteohub,2013-02-01 23:32:00,
2013-02-01 18:37:00,22.6,35.8,30.25,ENE,63,1.0,4.0,25,0.00,,,0.00,0.0,meteohub,2013-02-01 23:37:00,
2013-02-01 18:42:00,22.6,35.8,30.25,NE,41,1.0,4.0,25,0.00,,,0.00,0.0,meteohub,2013-02-01 23:42:00,
2013-02-01 18:47:00,22.8,35.6,30.26,NE,42,1.0,3.0,25,0.00,,,0.00,0.0,meteohub,2013-02-01 23:47:00,
2013-02-01 18:52:00,22.8,35.6,30.27,SE,125,3.0,3.0,25,0.00,,,0.00,0.0,meteohub,2013-02-01 23:52:00,
2013-02-01 18:57:00,22.3,35.6,30.27,SE,124,2.0,7.0,25,0.00,,,0.00,0.0,meteohub,2013-02-01 23:57:00,
2013-02-01 19:02:00,21.6,35.6,30.27,East,99,0.0,7.0,25,0.00,,,0.00,0.0,meteohub,2013-02-02 00:02:00,
2013-02-01 19:07:00,21.2,35.6,30.27,East,98,2.0,7.0,25,0.00,,,0.00,0.0,meteohub,2013-02-02 00:07:00,
2013-02-01 19:12:00,20.8,35.6,30.27,East,81,0.0,5.0,25,0.00,,,0.00,0.0,meteohub,2013-02-02 00:12:00,
2013-02-01 19:17:00,20.8,35.6,30.27,East,94,0.0,5.0,25,0.00,,,0.00,0.0,meteohub,2013-02-02 00:17:00,
2013-02-01 19:22:00,20.7,35.6,30.27,ESE,119,3.0,5.0,25,0.00,,,0.00,0.0,meteohub,2013-02-02 00:22:00,
2013-02-01 19:27:00,20.5,35.6,30.28,ESE,115,3.0,5.0,25,0.00,,,0.00,0.0,meteohub,2013-02-02 00:27:00,
2013-02-01 19:32:00,20.1,35.6,30.28,SE,138,3.0,6.0,25,0.00,,,0.00,0.0,meteohub,2013-02-02 00:32:00,
2013-02-01 19:37:00,20.1,35.6,30.28,ESE,115,3.0,6.0,25,0.00,,,0.00,0.0,meteohub,2013-02-02 00:37:00,
2013-02-01 19:42:00,19.9,35.6,30.29,ESE,111,0.0,6.0,25,0.00,,,0.00,0.0,meteohub,2013-02-02 00:42:00,
2013-02-01 19:47:00,19.8,35.6,30.29,East,96,2.0,5.0,25,0.00,,,0.00,0.0,meteohub,2013-02-02 00:47:00,
2013-02-01 19:52:00,19.6,35.2,30.29,East,92,2.0,5.0,25,0.00,,,0.00,0.0,meteohub,2013-02-02 00:52:00,
2013-02-01 19:57:00,19.6,35.2,30.29,East,94,2.0,5.0,25,0.00,,,0.00,0.0,meteohub,2013-02-02 00:57:00,
2013-02-01 20:02:00,19.4,35.2,30.29,ESE,121,3.0,7.0,25,0.00,,,0.00,0.0,meteohub,2013-02-02 01:02:00,
2013-02-01 20:07:00,19.2,35.2,30.29,ESE,109,2.0,7.0,25,0.00,,,0.00,0.0,meteohub,2013-02-02 01:07:00,
2013-02-01 20:12:00,19.2,35.2,30.30,SE,127,4.0,7.0,25,0.00,,,0.00,0.0,meteohub,2013-02-02 01:12:00,
2013-02-01 20:17:00,19.2,35.2,30.29,ESE,123,3.0,6.0,25,0.00,,,0.00,0.0,meteohub,2013-02-02 01:17:00,
2013-02-01 20:22:00,19.0,35.1,30.29,East,90,2.0,7.0,25,0.00,,,0.00,0.0,meteohub,2013-02-02 01:22:00,
2013-02-01 20:27:00,19.0,35.1,30.29,East,92,2.0,7.0,25,0.00,,,0.00,0.0,meteohub,2013-02-02 01:27:00,
2013-02-01 20:32:00,19.0,35.1,30.30,SE,124,1.0,7.0,25,0.00,,,0.00,0.0,meteohub,2013-02-02 01:32:00,
2013-02-01 20:37:00,19.0,35.1,30.30,East,96,0.0,5.0,25,0.00,,,0.00,0.0,meteohub,2013-02-02 01:37:00,
2013-02-01 20:42:00,18.9,35.1,30.29,SE,132,0.0,5.0,25,0.00,,,0.00,0.0,meteohub,2013-02-02 01:42:00,
2013-02-01 20:47:00,18.9,35.1,30.30,ESE,115,1.0,3.0,25,0.00,,,0.00,0.0,meteohub,2013-02-02 01:47:00,
2013-02-01 20:52:00,18.7,35.1,30.30,East,96,0.0,3.0,25,0.00,,,0.00,0.0,meteohub,2013-02-02 01:52:00,
2013-02-01 20:57:00,18.7,35.1,30.30,East,96,0.0,3.0,25,0.00,,,0.00,0.0,meteohub,2013-02-02 01:57:00,
2013-02-01 21:02:00,18.7,35.1,30.30,East,87,0.0,2.0,25,0.00,,,0.00,0.0,meteohub,2013-02-02 02:02:00,
2013-02-01 21:07:00,18.5,35.1,30.29,ESE,116,0.0,2.0,25,0.00,,,0.00,0.0,meteohub,2013-02-02 02:07:00,
2013-02-01 21:12:00,18.3,35.1,30.30,ESE,113,3.0,3.0,25,0.00,,,0.00,0.0,meteohub,2013-02-02 02:12:00,
2013-02-01 21:17:00,18.3,35.1,30.30,SE,126,1.0,4.0,25,0.00,,,0.00,0.0,meteohub,2013-02-02 02:17:00,
2013-02-01 21:22:00,18.1,35.1,30.30,ESE,119,3.0,4.0,25,0.00,,,0.00,0.0,meteohub,2013-02-02 02:22:00,
2013-02-01 21:27:00,18.0,35.1,30.31,SE,125,0.0,4.0,25,0.00,,,0.00,0.0,meteohub,2013-02-02 02:27:00,
2013-02-01 21:32:00,18.0,35.1,30.31,SE,126,0.0,3.0,25,0.00,,,0.00,0.0,meteohub,2013-02-02 02:32:00,
2013-02-01 21:37:00,17.8,35.1,30.31,ESE,105,2.0,3.0,25,0.00,,,0.00,0.0,meteohub,2013-02-02 02:37:00,
2013-02-01 21:42:00,17.8,35.1,30.30,ENE,62,1.0,3.0,25,0.00,,,0.00,0.0,meteohub,2013-02-02 02:42:00,
2013-02-01 21:47:00,17.8,35.1,30.30,SE,131,0.0,3.0,25,0.00,,,0.00,0.0,meteohub,2013-02-02 02:47:00,
2013-02-01 21:52:00,17.8,35.1,30.31,ESE,113,0.0,3.0,25,0.00,,,0.00,0.0,meteohub,2013-02-02 02:52:00,
2013-02-01 21:57:00,17.8,35.1,30.31,ESE,107,0.0,3.0,25,0.00,,,0.00,0.0,meteohub,2013-02-02 02:57:00,
2013-02-01 22:02:00,17.8,35.1,30.31,ESE,107,0.0,3.0,25,0.00,,,0.00,0.0,meteohub,2013-02-02 03:02:00,
2013-02-01 22:07:00,17.6,35.1,30.31,ESE,107,0.0,3.0,25,0.00,,,0.00,0.0,meteohub,2013-02-02 03:07:00,
2013-02-01 22:12:00,17.4,35.1,30.32,East,99,0.0,2.0,25,0.00,,,0.00,0.0,meteohub,2013-02-02 03:12:00,
2013-02-01 22:17:00,17.4,35.1,30.31,East,99,0.0,2.0,25,0.00,,,0.00,0.0,meteohub,2013-02-02 03:17:00,
2013-02-01 22:22:00,17.4,35.1,30.31,East,99,0.0,2.0,25,0.00,,,0.00,0.0,meteohub,2013-02-02 03:22:00,
2013-02-01 22:27:00,17.2,35.1,30.31,ESE,110,0.0,3.0,25,0.00,,,0.00,0.0,meteohub,2013-02-02 03:27:00,
2013-02-01 22:32:00,17.2,35.1,30.31,ESE,110,0.0,4.0,25,0.00,,,0.00,0.0,meteohub,2013-02-02 03:32:00,
2013-02-01 22:37:00,17.2,35.1,30.31,ESE,110,0.0,4.0,25,0.00,,,0.00,0.0,meteohub,2013-02-02 03:37:00,
2013-02-01 22:42:00,17.2,35.1,30.31,ESE,110,0.0,3.0,25,0.00,,,0.00,0.0,meteohub,2013-02-02 03:42:00,
2013-02-01 22:47:00,17.1,35.1,30.31,ESE,110,0.0,1.0,25,0.00,,,0.00,0.0,meteohub,2013-02-02 03:47:00,
2013-02-01 22:52:00,17.1,35.1,30.31,ESE,110,0.0,2.0,25,0.00,,,0.00,0.0,meteohub,2013-02-02 03:52:00,
2013-02-01 22:57:00,17.2,34.9,30.31,ESE,110,0.0,2.0,25,0.00,,,0.00,0.0,meteohub,2013-02-02 03:57:00,
2013-02-01 23:02:00,17.1,34.9,30.32,ESE,110,0.0,2.0,25,0.00,,,0.00,0.0,meteohub,2013-02-02 04:02:00,
2013-02-01 23:07:00,17.1,34.9,30.32,ESE,110,0.0,1.0,25,0.00,,,0.00,0.0,meteohub,2013-02-02 04:07:00,
2013-02-01 23:12:00,16.7,34.9,30.32,ESE,110,0.0,0.0,25,0.00,,,0.00,0.0,meteohub,2013-02-02 04:12:00,
2013-02-01 23:17:00,16.5,34.9,30.32,ESE,110,0.0,0.0,25,0.00,,,0.00,0.0,meteohub,2013-02-02 04:17:00,
2013-02-01 23:22:00,16.3,34.9,30.32,ESE,110,0.0,0.0,25,0.00,,,0.00,0.0,meteohub,2013-02-02 04:22:00,
2013-02-01 23:27:00,16.2,34.9,30.32,ESE,110,0.0,0.0,25,0.00,,,0.00,0.0,meteohub,2013-02-02 04:27:00,
2013-02-01 23:32:00,16.2,34.9,30.32,ESE,110,0.0,0.0,25,0.00,,,0.00,0.0,meteohub,2013-02-02 04:32:00,
2013-02-01 23:37:00,16.2,34.9,30.32,ESE,110,0.0,0.0,25,0.00,,,0.00,0.0,meteohub,2013-02-02 04:37:00,
2013-02-01 23:42:00,16.0,34.9,30.32,ESE,110,0.0,0.0,25,0.00,,,0.00,0.0,meteohub,2013-02-02 04:42:00,
2013-02-01 23:47:00,16.0,34.9,30.32,ESE,110,0.0,0.0,25,0.00,,,0.00,0.0,meteohub,2013-02-02 04:47:00,
2013-02-01 23:52:00,15.8,34.9,30.32,ESE,110,0.0,0.0,25,0.00,,,0.00,0.0,meteohub,2013-02-02 04:52:00,
2013-02-01 23:57:00,15.8,34.5,30.33,ESE,110,0.0,0.0,25,0.00,,,0.00,0.0,meteohub,2013-02-02 04:57:00,